| time (UTC) | temp F | wind direction | speed MPH | gust MPH | rain 1hr in | rain 24hr in | rain mn in | humidity % | barometer mb |
| 20260903030312 | 74 | 208 | 0.0 | 0.0 | 0.00 | 0.00 | 0.00 | 95 | 1017.0 |
| 20260903025825 | 74 | 208 | 0.0 | 0.0 | 0.00 | 0.00 | 0.00 | 95 | 1017.1 |
| 20260903025317 | 74 | 209 | 0.0 | 0.0 | 0.00 | 0.00 | 0.00 | 95 | 1017.0 |
| 20260903024829 | 74 | 209 | 0.0 | 0.0 | 0.00 | 0.00 | 0.00 | 95 | 1017.0 |
| 20260903024342 | 75 | 209 | 0.0 | 0.0 | 0.00 | 0.00 | 0.00 | 95 | 1017.1 |
| 20260903023813 | 75 | 209 | 0.0 | 0.0 | 0.00 | 0.00 | 0.00 | 95 | 1017.1 |
| 20260903023310 | 75 | 209 | 0.0 | 0.0 | 0.00 | 0.00 | 0.00 | 94 | 1017.1 |
| 20260903022824 | 75 | 209 | 0.0 | 0.0 | 0.00 | 0.00 | 0.00 | 94 | 1017.2 |
| 20260903022316 | 75 | 208 | 0.0 | 0.0 | 0.00 | 0.00 | 0.00 | 95 | 1017.2 |
| 20260903021849 | 75 | 209 | 0.0 | 0.0 | 0.00 | 0.00 | 0.00 | 94 | 1017.2 |
| 20260903021341 | 75 | 209 | 0.0 | 0.0 | 0.00 | 0.00 | 0.00 | 94 | 1017.2 |
| 20260903020813 | 75 | 208 | 0.0 | 0.0 | 0.00 | 0.00 | 0.00 | 94 | 1017.2 |
| 20260903020325 | 76 | 209 | 0.0 | 0.0 | 0.00 | 0.00 | 0.00 | 94 | 1017.1 |
| 20260903015818 | 76 | 209 | 0.0 | 0.0 | 0.00 | 0.00 | 0.00 | 94 | 1017.1 |
| 20260903015311 | 76 | 208 | 0.0 | 0.0 | 0.00 | 0.00 | 0.00 | 93 | 1017.1 |
| 20260903014844 | 76 | 209 | 0.0 | 0.0 | 0.00 | 0.00 | 0.00 | 93 | 1017.1 |
| 20260903014320 | 76 | 209 | 0.0 | 0.0 | 0.00 | 0.00 | 0.00 | 93 | 1017.1 |
| 20260903013811 | 77 | 209 | 0.0 | 0.0 | 0.00 | 0.00 | 0.00 | 93 | 1017.0 |
| 20260903013323 | 77 | 208 | 0.0 | 0.0 | 0.00 | 0.00 | 0.00 | 93 | 1017.1 |
| 20260903012837 | 77 | 209 | 0.0 | 0.0 | 0.00 | 0.00 | 0.00 | 92 | 1017.0 |
| 20260903012348 | 77 | 208 | 0.0 | 0.0 | 0.00 | 0.00 | 0.00 | 92 | 1017.1 |
| 20260903011820 | 77 | 209 | 0.0 | 0.0 | 0.00 | 0.00 | 0.00 | 91 | 1017.0 |
| 20260903011312 | 78 | 208 | 0.0 | 0.0 | 0.00 | 0.00 | 0.00 | 91 | 1016.9 |
| 20260903010824 | 78 | 209 | 0.0 | 0.0 | 0.00 | 0.00 | 0.00 | 91 | 1016.8 |
| 20260903010317 | 78 | 208 | 0.0 | 0.0 | 0.00 | 0.00 | 0.00 | 91 | 1016.7 |
| 20260903005813 | 78 | 208 | 0.0 | 0.0 | 0.00 | 0.00 | 0.00 | 90 | 1016.7 |
| 20260903005326 | 79 | 209 | 0.0 | 0.0 | 0.00 | 0.00 | 0.00 | 89 | 1016.6 |
| 20260903004839 | 79 | 209 | 0.0 | 0.0 | 0.00 | 0.00 | 0.00 | 89 | 1016.7 |
| 20260903004311 | 79 | 208 | 0.0 | 0.0 | 0.00 | 0.00 | 0.00 | 88 | 1016.6 |
| 20260903003313 | 81 | 208 | 0.0 | 0.0 | 0.00 | 0.00 | 0.00 | 86 | 1016.6 |
| 20260903002846 | 81 | 208 | 0.0 | 0.0 | 0.00 | 0.00 | 0.00 | 84 | 1016.6 |
| 20260903002317 | 82 | 209 | 0.0 | 0.0 | 0.00 | 0.00 | 0.00 | 83 | 1016.5 |
| 20260903001811 | 83 | 209 | 0.0 | 0.0 | 0.00 | 0.00 | 0.00 | 81 | 1016.5 |
| 20260903000844 | 85 | 209 | 0.0 | 0.0 | 0.00 | 0.00 | 0.00 | 79 | 1016.5 |
| 20260903000317 | 86 | 209 | 0.0 | 0.0 | 0.00 | 0.00 | 0.00 | 77 | 1016.5 |
| 20260902235834 | 87 | 209 | 0.0 | 0.0 | 0.00 | 0.00 | 0.00 | 75 | 1016.6 |
| 20260902235325 | 88 | 208 | 0.0 | 0.0 | 0.00 | 0.00 | 0.00 | 74 | 1016.5 |
| 20260902234817 | 88 | 209 | 0.0 | 0.0 | 0.00 | 0.00 | 0.00 | 74 | 1016.6 |
| 20260902234310 | 89 | 209 | 0.0 | 0.0 | 0.00 | 0.00 | 0.00 | 73 | 1016.6 |
| 20260902233823 | 89 | 209 | 0.0 | 2.0 | 0.00 | 0.00 | 0.00 | 72 | 1016.6 |
| 20260902233336 | 89 | 214 | 0.0 | 1.0 | 0.00 | 0.00 | 0.00 | 72 | 1016.6 |
| 20260902232825 | 90 | 214 | 0.0 | 1.0 | 0.00 | 0.00 | 0.00 | 71 | 1016.5 |
| 20260902232317 | 90 | 214 | 0.0 | 3.0 | 0.00 | 0.00 | 0.00 | 71 | 1016.5 |
| 20260902231811 | 90 | 226 | 0.0 | 5.0 | 0.00 | 0.00 | 0.00 | 70 | 1016.5 |
| 20260902231327 | 90 | 218 | 2.0 | 5.0 | 0.00 | 0.00 | 0.00 | 67 | 1016.5 |
| 20260902230820 | 91 | 198 | 2.0 | 4.0 | 0.00 | 0.00 | 0.00 | 67 | 1016.6 |
| 20260902230313 | 91 | 236 | 0.0 | 3.0 | 0.00 | 0.00 | 0.00 | 68 | 1016.6 |
| 20260902225826 | 91 | 193 | 1.0 | 4.0 | 0.00 | 0.00 | 0.00 | 67 | 1016.6 |
| 20260902225319 | 91 | 203 | 1.0 | 4.0 | 0.00 | 0.00 | 0.00 | 66 | 1016.6 |
| 20260902224812 | 92 | 218 | 2.0 | 5.0 | 0.00 | 0.00 | 0.00 | 66 | 1016.6 |
| 20260902224325 | 92 | 243 | 2.0 | 5.0 | 0.00 | 0.00 | 0.00 | 66 | 1016.6 |
| 20260902223817 | 92 | 227 | 0.0 | 4.0 | 0.00 | 0.00 | 0.00 | 67 | 1016.7 |
| 20260902223315 | 92 | 231 | 1.0 | 8.0 | 0.00 | 0.00 | 0.00 | 66 | 1016.7 |
| 20260902222827 | 92 | 220 | 2.0 | 8.0 | 0.00 | 0.00 | 0.00 | 66 | 1016.7 |
| 20260902222320 | 92 | 219 | 1.0 | 6.0 | 0.00 | 0.00 | 0.00 | 66 | 1016.8 |
| 20260902221812 | 92 | 226 | 2.0 | 6.0 | 0.00 | 0.00 | 0.00 | 66 | 1016.8 |
| 20260902221324 | 92 | 214 | 2.0 | 5.0 | 0.00 | 0.00 | 0.00 | 64 | 1016.9 |
| 20260902220836 | 92 | 255 | 0.0 | 5.0 | 0.00 | 0.00 | 0.00 | 66 | 1016.8 |
| 20260902220348 | 92 | 210 | 2.0 | 8.0 | 0.00 | 0.00 | 0.00 | 64 | 1016.9 |
| 20260902215859 | 92 | 235 | 3.0 | 8.0 | 0.00 | 0.00 | 0.00 | 63 | 1016.9 |
| 20260902215327 | 92 | 243 | 4.0 | 8.0 | 0.00 | 0.00 | 0.00 | 64 | 1016.9 |
| 20260902214840 | 92 | 240 | 4.0 | 8.0 | 0.00 | 0.00 | 0.00 | 63 | 1016.9 |
| 20260902214312 | 92 | 211 | 2.0 | 8.0 | 0.00 | 0.00 | 0.00 | 64 | 1016.9 |
| 20260902213828 | 93 | 212 | 3.0 | 8.0 | 0.00 | 0.00 | 0.00 | 64 | 1017.0 |
| 20260902213320 | 92 | 211 | 3.0 | 6.0 | 0.00 | 0.00 | 0.00 | 64 | 1016.9 |
| 20260902212813 | 92 | 230 | 2.0 | 6.0 | 0.00 | 0.00 | 0.00 | 64 | 1016.9 |
| 20260902212326 | 92 | 238 | 2.0 | 5.0 | 0.00 | 0.00 | 0.00 | 65 | 1016.9 |
| 20260902211819 | 92 | 239 | 2.0 | 7.0 | 0.00 | 0.00 | 0.00 | 63 | 1017.0 |
| 20260902211312 | 92 | 218 | 4.0 | 7.0 | 0.00 | 0.00 | 0.00 | 64 | 1017.0 |
| 20260902210825 | 93 | 243 | 1.0 | 9.0 | 0.00 | 0.00 | 0.00 | 64 | 1017.0 |
| 20260902210318 | 93 | 256 | 5.0 | 9.0 | 0.00 | 0.00 | 0.00 | 62 | 1017.1 |
| 20260902205814 | 93 | 245 | 3.0 | 8.0 | 0.00 | 0.00 | 0.00 | 64 | 1017.2 |
| 20260902205327 | 93 | 210 | 2.0 | 8.0 | 0.00 | 0.00 | 0.00 | 64 | 1017.2 |
| 20260902204820 | 93 | 240 | 5.0 | 10.0 | 0.00 | 0.00 | 0.00 | 64 | 1017.2 |
| 20260902204313 | 93 | 242 | 5.0 | 9.0 | 0.00 | 0.00 | 0.00 | 63 | 1017.2 |
| 20260902203826 | 93 | 232 | 3.0 | 7.0 | 0.00 | 0.00 | 0.00 | 65 | 1017.2 |
| 20260902203319 | 92 | 233 | 3.0 | 9.0 | 0.00 | 0.00 | 0.00 | 62 | 1017.2 |
| 20260902202811 | 92 | 247 | 5.0 | 9.0 | 0.00 | 0.00 | 0.00 | 63 | 1017.2 |
| 20260902202324 | 92 | 214 | 4.0 | 9.0 | 0.00 | 0.00 | 0.00 | 62 | 1017.2 |
| 20260902201822 | 93 | 243 | 6.0 | 9.0 | 0.00 | 0.00 | 0.00 | 64 | 1017.3 |
| 20260902201314 | 92 | 205 | 3.0 | 7.0 | 0.00 | 0.00 | 0.00 | 63 | 1017.3 |
| 20260902200826 | 92 | 245 | 4.0 | 11.0 | 0.00 | 0.00 | 0.00 | 62 | 1017.3 |
| 20260902200316 | 93 | 259 | 5.0 | 11.0 | 0.00 | 0.00 | 0.00 | 62 | 1017.4 |
| 20260902195829 | 93 | 231 | 5.0 | 9.0 | 0.00 | 0.00 | 0.00 | 62 | 1017.3 |
| 20260902195342 | 93 | 239 | 4.0 | 9.0 | 0.00 | 0.00 | 0.00 | 63 | 1017.5 |
| 20260902194833 | 93 | 249 | 4.0 | 7.0 | 0.00 | 0.00 | 0.00 | 63 | 1017.6 |
| 20260902194325 | 93 | 235 | 2.0 | 9.0 | 0.00 | 0.00 | 0.00 | 64 | 1017.6 |
| 20260902193818 | 93 | 186 | 3.0 | 11.0 | 0.00 | 0.00 | 0.00 | 64 | 1017.7 |
| 20260902193315 | 93 | 212 | 5.0 | 11.0 | 0.00 | 0.00 | 0.00 | 64 | 1017.8 |
| 20260902192828 | 93 | 245 | 3.0 | 8.0 | 0.00 | 0.00 | 0.00 | 62 | 1017.9 |
| 20260902192321 | 93 | 231 | 2.0 | 8.0 | 0.00 | 0.00 | 0.00 | 63 | 1017.9 |
| 20260902191834 | 93 | 240 | 3.0 | 9.0 | 0.00 | 0.00 | 0.00 | 63 | 1018.0 |
| 20260902191326 | 93 | 219 | 1.0 | 9.0 | 0.00 | 0.00 | 0.00 | 63 | 1018.0 |
| 20260902190818 | 93 | 188 | 4.0 | 9.0 | 0.00 | 0.00 | 0.00 | 66 | 1018.1 |
| 20260902190311 | 93 | 230 | 4.0 | 9.0 | 0.00 | 0.00 | 0.00 | 65 | 1018.1 |
| 20260902185845 | 93 | 231 | 1.0 | 9.0 | 0.00 | 0.00 | 0.00 | 64 | 1018.1 |
| 20260902185319 | 92 | 240 | 6.0 | 10.0 | 0.00 | 0.00 | 0.00 | 61 | 1018.1 |
| 20260902184833 | 92 | 293 | 5.0 | 10.0 | 0.00 | 0.00 | 0.00 | 62 | 1018.2 |
| 20260902184325 | 93 | 259 | 3.0 | 9.0 | 0.00 | 0.00 | 0.00 | 61 | 1018.2 |
| 20260902183817 | 93 | 219 | 2.0 | 10.0 | 0.00 | 0.00 | 0.00 | 62 | 1018.2 |
| 20260902183351 | 93 | 186 | 3.0 | 10.0 | 0.00 | 0.00 | 0.00 | 62 | 1018.2 |
| 20260902182822 | 93 | 205 | 3.0 | 6.0 | 0.00 | 0.00 | 0.00 | 62 | 1018.2 |
| 20260902182315 | 92 | 248 | 2.0 | 8.0 | 0.00 | 0.00 | 0.00 | 64 | 1018.2 |
| 20260902181828 | 92 | 160 | 2.0 | 8.0 | 0.00 | 0.00 | 0.00 | 64 | 1018.2 |
| 20260902181321 | 92 | 259 | 3.0 | 10.0 | 0.00 | 0.00 | 0.00 | 66 | 1018.3 |
| 20260902180814 | 92 | 268 | 5.0 | 10.0 | 0.00 | 0.00 | 0.00 | 66 | 1018.3 |
| 20260902180311 | 92 | 250 | 3.0 | 10.0 | 0.00 | 0.00 | 0.00 | 64 | 1018.4 |
| 20260902175824 | 92 | 263 | 5.0 | 10.0 | 0.00 | 0.00 | 0.00 | 65 | 1018.4 |
| 20260902175337 | 92 | 258 | 3.0 | 10.0 | 0.00 | 0.00 | 0.00 | 63 | 1018.4 |
| 20260902174828 | 92 | 247 | 5.0 | 10.0 | 0.00 | 0.00 | 0.00 | 63 | 1018.4 |
| 20260902174321 | 92 | 296 | 6.0 | 11.0 | 0.00 | 0.00 | 0.00 | 65 | 1018.5 |
| 20260902173814 | 92 | 253 | 2.0 | 10.0 | 0.00 | 0.00 | 0.00 | 67 | 1018.6 |
| 20260902173347 | 91 | 213 | 4.0 | 11.0 | 0.00 | 0.00 | 0.00 | 68 | 1018.7 |
| 20260902172818 | 91 | 231 | 4.0 | 17.0 | 0.00 | 0.00 | 0.00 | 64 | 1018.8 |
| 20260902172312 | 91 | 191 | 3.0 | 9.0 | 0.00 | 0.00 | 0.00 | 66 | 1018.8 |
| 20260902171829 | 91 | 256 | 2.0 | 10.0 | 0.00 | 0.00 | 0.00 | 66 | 1018.8 |
| 20260902171341 | 91 | 269 | 6.0 | 10.0 | 0.00 | 0.00 | 0.00 | 64 | 1018.9 |
| 20260902170833 | 91 | 274 | 2.0 | 11.0 | 0.00 | 0.00 | 0.00 | 66 | 1019.0 |
| 20260902170345 | 91 | 257 | 3.0 | 11.0 | 0.00 | 0.00 | 0.00 | 64 | 1019.0 |
| 20260902165836 | 91 | 269 | 5.0 | 11.0 | 0.00 | 0.00 | 0.00 | 66 | 1019.0 |
| 20260902165328 | 91 | 268 | 6.0 | 10.0 | 0.00 | 0.00 | 0.00 | 65 | 1019.0 |
| 20260902164820 | 91 | 268 | 6.0 | 10.0 | 0.00 | 0.00 | 0.00 | 67 | 1019.0 |
| 20260902164333 | 90 | 238 | 2.0 | 9.0 | 0.00 | 0.00 | 0.00 | 69 | 1019.1 |
| 20260902163824 | 90 | 243 | 6.0 | 9.0 | 0.00 | 0.00 | 0.00 | 66 | 1019.0 |
| 20260902163317 | 90 | 281 | 4.0 | 9.0 | 0.00 | 0.00 | 0.00 | 67 | 1019.1 |
| 20260902162830 | 90 | 269 | 3.0 | 10.0 | 0.00 | 0.00 | 0.00 | 67 | 1019.1 |
| 20260902162324 | 90 | 277 | 5.0 | 10.0 | 0.00 | 0.00 | 0.00 | 69 | 1019.1 |
| 20260902161836 | 90 | 212 | 4.0 | 10.0 | 0.00 | 0.00 | 0.00 | 69 | 1019.1 |
| 20260902161329 | 90 | 274 | 4.0 | 7.0 | 0.00 | 0.00 | 0.00 | 68 | 1019.1 |
| 20260902160821 | 90 | 264 | 3.0 | 8.0 | 0.00 | 0.00 | 0.00 | 70 | 1019.1 |
| 20260902160314 | 90 | 254 | 3.0 | 9.0 | 0.00 | 0.00 | 0.00 | 70 | 1019.1 |
| 20260902155827 | 89 | 272 | 4.0 | 9.0 | 0.00 | 0.00 | 0.00 | 70 | 1019.1 |
| 20260902155320 | 89 | 263 | 2.0 | 8.0 | 0.00 | 0.00 | 0.00 | 71 | 1019.2 |
| 20260902154813 | 89 | 273 | 4.0 | 8.0 | 0.00 | 0.00 | 0.00 | 72 | 1019.1 |
| 20260902154309 | 89 | 278 | 3.0 | 10.0 | 0.00 | 0.00 | 0.00 | 73 | 1019.2 |
| 20260902153823 | 88 | 250 | 5.0 | 10.0 | 0.00 | 0.00 | 0.00 | 71 | 1019.2 |
| 20260902153315 | 88 | 272 | 4.0 | 7.0 | 0.00 | 0.00 | 0.00 | 72 | 1019.3 |
| 20260902152848 | 88 | 276 | 3.0 | 9.0 | 0.00 | 0.00 | 0.00 | 72 | 1019.3 |
| 20260902152320 | 88 | 278 | 3.0 | 9.0 | 0.00 | 0.00 | 0.00 | 73 | 1019.3 |
| 20260902151811 | 88 | 192 | 1.0 | 8.0 | 0.00 | 0.00 | 0.00 | 76 | 1019.4 |
| 20260902151325 | 88 | 296 | 2.0 | 6.0 | 0.00 | 0.00 | 0.00 | 76 | 1019.3 |
| 20260902150817 | 87 | 250 | 2.0 | 6.0 | 0.00 | 0.00 | 0.00 | 75 | 1019.4 |
| 20260902150327 | 87 | 270 | 2.0 | 6.0 | 0.00 | 0.00 | 0.00 | 73 | 1019.3 |
| 20260902145823 | 87 | 266 | 3.0 | 8.0 | 0.00 | 0.00 | 0.00 | 76 | 1019.4 |
| 20260902145316 | 86 | 221 | 4.0 | 8.0 | 0.00 | 0.00 | 0.00 | 75 | 1019.4 |
| 20260902144848 | 86 | 235 | 5.0 | 7.0 | 0.00 | 0.00 | 0.00 | 76 | 1019.4 |
| 20260902144320 | 86 | 264 | 4.0 | 8.0 | 0.00 | 0.00 | 0.00 | 77 | 1019.5 |
| 20260902143812 | 86 | 258 | 6.0 | 8.0 | 0.00 | 0.00 | 0.00 | 78 | 1019.5 |
| 20260902143324 | 85 | 246 | 4.0 | 7.0 | 0.00 | 0.00 | 0.00 | 78 | 1019.5 |
| 20260902142836 | 85 | 240 | 4.0 | 8.0 | 0.00 | 0.00 | 0.00 | 78 | 1019.4 |
| 20260902142328 | 85 | 271 | 4.0 | 7.0 | 0.00 | 0.00 | 0.00 | 77 | 1019.3 |
| 20260902141818 | 84 | 258 | 5.0 | 7.0 | 0.00 | 0.00 | 0.00 | 78 | 1019.3 |
| 20260902141315 | 84 | 282 | 4.0 | 7.0 | 0.00 | 0.00 | 0.00 | 80 | 1019.3 |
| 20260902140828 | 84 | 257 | 4.0 | 7.0 | 0.00 | 0.00 | 0.00 | 81 | 1019.3 |
| 20260902140321 | 83 | 248 | 3.0 | 7.0 | 0.00 | 0.00 | 0.00 | 80 | 1019.3 |
| 20260902135812 | 83 | 262 | 4.0 | 9.0 | 0.00 | 0.00 | 0.00 | 81 | 1019.3 |
| 20260902135325 | 83 | 267 | 5.0 | 9.0 | 0.00 | 0.00 | 0.00 | 81 | 1019.3 |
| 20260902134839 | 83 | 250 | 3.0 | 6.0 | 0.00 | 0.00 | 0.00 | 83 | 1019.3 |
| 20260902134350 | 82 | 246 | 2.0 | 6.0 | 0.00 | 0.00 | 0.00 | 84 | 1019.3 |
| 20260902133822 | 82 | 215 | 2.0 | 7.0 | 0.00 | 0.00 | 0.00 | 84 | 1019.4 |
| 20260902133335 | 81 | 248 | 3.0 | 7.0 | 0.00 | 0.00 | 0.00 | 85 | 1019.4 |
| 20260902132826 | 81 | 233 | 4.0 | 6.0 | 0.00 | 0.00 | 0.00 | 85 | 1019.3 |
| 20260902132323 | 80 | 280 | 4.0 | 6.0 | 0.00 | 0.00 | 0.00 | 85 | 1019.3 |
| 20260902131815 | 80 | 243 | 3.0 | 6.0 | 0.00 | 0.00 | 0.00 | 87 | 1019.4 |
| 20260902131328 | 79 | 249 | 3.0 | 4.0 | 0.00 | 0.00 | 0.00 | 88 | 1019.3 |
| 20260902130821 | 79 | 271 | 2.0 | 6.0 | 0.00 | 0.00 | 0.00 | 89 | 1019.3 |
| 20260902130314 | 78 | 245 | 0.0 | 3.0 | 0.00 | 0.00 | 0.00 | 92 | 1019.3 |
| 20260902125847 | 78 | 232 | 1.0 | 3.0 | 0.00 | 0.00 | 0.00 | 93 | 1019.3 |
| 20260902125319 | 77 | 236 | 0.0 | 1.0 | 0.00 | 0.00 | 0.00 | 96 | 1019.3 |
| 20260902124811 | 77 | 212 | 0.0 | 0.0 | 0.00 | 0.00 | 0.00 | 97 | 1019.3 |
| 20260902124323 | 77 | 212 | 0.0 | 0.0 | 0.00 | 0.00 | 0.00 | 97 | 1019.3 |
| 20260902123819 | 76 | 212 | 0.0 | 0.0 | 0.00 | 0.00 | 0.00 | 97 | 1019.2 |
| 20260902123312 | 75 | 212 | 0.0 | 0.0 | 0.00 | 0.00 | 0.00 | 97 | 1019.2 |
| 20260902122825 | 74 | 212 | 0.0 | 0.0 | 0.00 | 0.00 | 0.00 | 97 | 1019.2 |
| 20260902122318 | 74 | 212 | 0.0 | 0.0 | 0.00 | 0.00 | 0.00 | 97 | 1019.2 |
| 20260902121811 | 73 | 212 | 0.0 | 0.0 | 0.00 | 0.00 | 0.00 | 97 | 1019.1 |
| 20260902121323 | 73 | 212 | 0.0 | 0.0 | 0.00 | 0.00 | 0.00 | 97 | 1019.2 |
| 20260902120816 | 73 | 212 | 0.0 | 0.0 | 0.00 | 0.00 | 0.00 | 97 | 1019.1 |
| 20260902120312 | 72 | 212 | 0.0 | 0.0 | 0.00 | 0.00 | 0.00 | 97 | 1019.0 |
| 20260902115825 | 71 | 212 | 0.0 | 0.0 | 0.00 | 0.00 | 0.00 | 97 | 1019.0 |
| 20260902115318 | 71 | 212 | 0.0 | 0.0 | 0.00 | 0.00 | 0.00 | 97 | 1019.0 |
| 20260902114811 | 70 | 212 | 0.0 | 0.0 | 0.00 | 0.00 | 0.00 | 97 | 1018.9 |
| 20260902114324 | 69 | 212 | 0.0 | 0.0 | 0.00 | 0.00 | 0.00 | 97 | 1018.9 |
| 20260902113817 | 69 | 212 | 0.0 | 0.0 | 0.00 | 0.00 | 0.00 | 97 | 1018.8 |
| 20260902113329 | 69 | 212 | 0.0 | 0.0 | 0.00 | 0.00 | 0.00 | 97 | 1018.7 |
| 20260902112822 | 68 | 212 | 0.0 | 0.0 | 0.00 | 0.00 | 0.00 | 97 | 1018.7 |
| 20260902112318 | 68 | 212 | 0.0 | 0.0 | 0.00 | 0.00 | 0.00 | 97 | 1018.6 |
| 20260902111811 | 68 | 212 | 0.0 | 0.0 | 0.00 | 0.00 | 0.00 | 97 | 1018.6 |
| 20260902111344 | 69 | 212 | 0.0 | 0.0 | 0.00 | 0.00 | 0.00 | 97 | 1018.5 |
| 20260902110816 | 69 | 212 | 0.0 | 0.0 | 0.00 | 0.00 | 0.00 | 97 | 1018.5 |
| 20260902110349 | 69 | 212 | 0.0 | 0.0 | 0.00 | 0.00 | 0.00 | 97 | 1018.4 |
| 20260902105820 | 69 | 212 | 0.0 | 0.0 | 0.00 | 0.00 | 0.00 | 97 | 1018.4 |
| 20260902105313 | 69 | 212 | 0.0 | 0.0 | 0.00 | 0.00 | 0.00 | 97 | 1018.5 |
| 20260902104826 | 69 | 212 | 0.0 | 0.0 | 0.00 | 0.00 | 0.00 | 97 | 1018.5 |
| 20260902104319 | 69 | 212 | 0.0 | 0.0 | 0.00 | 0.00 | 0.00 | 97 | 1018.5 |
| 20260902103816 | 69 | 212 | 0.0 | 0.0 | 0.00 | 0.00 | 0.00 | 97 | 1018.5 |
| 20260902103329 | 69 | 212 | 0.0 | 0.0 | 0.00 | 0.00 | 0.00 | 97 | 1018.5 |
| 20260902102821 | 69 | 212 | 0.0 | 0.0 | 0.00 | 0.00 | 0.00 | 97 | 1018.5 |
| 20260902102333 | 69 | 212 | 0.0 | 0.0 | 0.00 | 0.00 | 0.00 | 97 | 1018.5 |
| 20260902101845 | 69 | 212 | 0.0 | 0.0 | 0.00 | 0.00 | 0.00 | 97 | 1018.4 |
| 20260902101317 | 68 | 212 | 0.0 | 0.0 | 0.00 | 0.00 | 0.00 | 97 | 1018.5 |
| 20260902100810 | 68 | 212 | 0.0 | 0.0 | 0.00 | 0.00 | 0.00 | 97 | 1018.4 |
| 20260902100323 | 68 | 212 | 0.0 | 0.0 | 0.00 | 0.00 | 0.00 | 97 | 1018.4 |
| 20260902095816 | 67 | 212 | 0.0 | 0.0 | 0.00 | 0.00 | 0.00 | 97 | 1018.4 |
| 20260902095312 | 68 | 212 | 0.0 | 0.0 | 0.00 | 0.00 | 0.00 | 97 | 1018.4 |
| 20260902094825 | 68 | 212 | 0.0 | 0.0 | 0.00 | 0.00 | 0.00 | 97 | 1018.4 |
| 20260902094318 | 68 | 212 | 0.0 | 0.0 | 0.00 | 0.00 | 0.00 | 97 | 1018.3 |
| 20260902093811 | 68 | 212 | 0.0 | 0.0 | 0.00 | 0.00 | 0.00 | 97 | 1018.3 |
| 20260902093324 | 68 | 212 | 0.0 | 0.0 | 0.00 | 0.00 | 0.00 | 97 | 1018.3 |
| 20260902092817 | 68 | 212 | 0.0 | 0.0 | 0.00 | 0.00 | 0.00 | 97 | 1018.3 |
| 20260902092350 | 68 | 212 | 0.0 | 0.0 | 0.00 | 0.00 | 0.00 | 97 | 1018.3 |
| 20260902091821 | 68 | 212 | 0.0 | 0.0 | 0.00 | 0.00 | 0.00 | 97 | 1018.3 |
| 20260902091314 | 68 | 212 | 0.0 | 0.0 | 0.00 | 0.00 | 0.00 | 97 | 1018.2 |
| 20260902090811 | 68 | 212 | 0.0 | 0.0 | 0.00 | 0.00 | 0.00 | 97 | 1018.1 |
| 20260902090324 | 68 | 212 | 0.0 | 0.0 | 0.00 | 0.00 | 0.00 | 97 | 1018.2 |
| 20260902085816 | 68 | 212 | 0.0 | 0.0 | 0.00 | 0.00 | 0.00 | 97 | 1018.2 |
| 20260902085310 | 68 | 212 | 0.0 | 0.0 | 0.00 | 0.00 | 0.00 | 97 | 1018.2 |
| 20260902084822 | 68 | 212 | 0.0 | 0.0 | 0.00 | 0.00 | 0.00 | 97 | 1018.2 |
| 20260902084316 | 68 | 212 | 0.0 | 0.0 | 0.00 | 0.00 | 0.00 | 97 | 1018.1 |
| 20260902083828 | 68 | 212 | 0.0 | 0.0 | 0.00 | 0.00 | 0.00 | 97 | 1018.0 |
| 20260902083321 | 68 | 212 | 0.0 | 0.0 | 0.00 | 0.00 | 0.00 | 97 | 1018.0 |
| 20260902082818 | 69 | 212 | 0.0 | 0.0 | 0.00 | 0.00 | 0.00 | 97 | 1017.9 |
| 20260902082310 | 69 | 212 | 0.0 | 0.0 | 0.00 | 0.00 | 0.00 | 97 | 1017.7 |
| 20260902081823 | 69 | 212 | 0.0 | 0.0 | 0.00 | 0.00 | 0.00 | 97 | 1017.7 |
| 20260902081315 | 68 | 212 | 0.0 | 0.0 | 0.00 | 0.00 | 0.00 | 97 | 1017.7 |
| 20260902080829 | 68 | 212 | 0.0 | 0.0 | 0.00 | 0.00 | 0.00 | 97 | 1017.8 |
| 20260902080341 | 68 | 212 | 0.0 | 0.0 | 0.00 | 0.00 | 0.00 | 97 | 1017.7 |
| 20260902075813 | 68 | 212 | 0.0 | 0.0 | 0.00 | 0.00 | 0.00 | 97 | 1017.7 |
| 20260902075326 | 68 | 212 | 0.0 | 0.0 | 0.00 | 0.00 | 0.00 | 97 | 1017.7 |
| 20260902074823 | 69 | 212 | 0.0 | 0.0 | 0.00 | 0.00 | 0.00 | 97 | 1017.7 |
| 20260902074316 | 69 | 212 | 0.0 | 0.0 | 0.00 | 0.00 | 0.00 | 97 | 1017.7 |
| 20260902073828 | 69 | 212 | 0.0 | 0.0 | 0.00 | 0.00 | 0.00 | 97 | 1017.7 |
| 20260902073322 | 69 | 212 | 0.0 | 0.0 | 0.00 | 0.00 | 0.00 | 97 | 1017.6 |
| 20260902072814 | 69 | 212 | 0.0 | 0.0 | 0.00 | 0.00 | 0.00 | 97 | 1017.6 |
| 20260902072347 | 69 | 212 | 0.0 | 0.0 | 0.00 | 0.00 | 0.00 | 97 | 1017.6 |
| 20260902071819 | 69 | 212 | 0.0 | 0.0 | 0.00 | 0.00 | 0.00 | 97 | 1017.6 |
| 20260902071332 | 69 | 212 | 0.0 | 0.0 | 0.00 | 0.00 | 0.00 | 97 | 1017.7 |
| 20260902070823 | 69 | 212 | 0.0 | 0.0 | 0.00 | 0.00 | 0.00 | 97 | 1017.7 |
| 20260902070321 | 69 | 212 | 0.0 | 0.0 | 0.00 | 0.00 | 0.00 | 97 | 1017.7 |
| 20260902065813 | 69 | 212 | 0.0 | 0.0 | 0.00 | 0.00 | 0.00 | 97 | 1017.7 |
| 20260902065325 | 69 | 212 | 0.0 | 0.0 | 0.00 | 0.00 | 0.00 | 97 | 1017.7 |
| 20260902064818 | 69 | 212 | 0.0 | 0.0 | 0.00 | 0.00 | 0.00 | 97 | 1017.7 |
| 20260902064310 | 69 | 212 | 0.0 | 0.0 | 0.00 | 0.00 | 0.00 | 97 | 1017.8 |
| 20260902063823 | 69 | 212 | 0.0 | 0.0 | 0.00 | 0.00 | 0.00 | 97 | 1017.8 |
| 20260902063335 | 69 | 212 | 0.0 | 0.0 | 0.00 | 0.00 | 0.00 | 97 | 1017.7 |
| 20260902062828 | 70 | 212 | 0.0 | 0.0 | 0.00 | 0.00 | 0.00 | 97 | 1017.8 |
| 20260902062320 | 70 | 212 | 0.0 | 0.0 | 0.00 | 0.00 | 0.00 | 97 | 1017.8 |
| 20260902061817 | 70 | 212 | 0.0 | 0.0 | 0.00 | 0.00 | 0.00 | 97 | 1017.8 |
| 20260902061310 | 70 | 212 | 0.0 | 0.0 | 0.00 | 0.00 | 0.00 | 97 | 1017.8 |
| 20260902060843 | 70 | 212 | 0.0 | 0.0 | 0.00 | 0.00 | 0.00 | 97 | 1017.8 |
| 20260902060314 | 70 | 212 | 0.0 | 0.0 | 0.00 | 0.00 | 0.00 | 97 | 1017.8 |
| 20260902055828 | 70 | 212 | 0.0 | 0.0 | 0.00 | 0.00 | 0.00 | 97 | 1017.8 |
| 20260902055320 | 70 | 212 | 0.0 | 0.0 | 0.00 | 0.00 | 0.00 | 97 | 1017.8 |
| 20260902054833 | 70 | 212 | 0.0 | 0.0 | 0.00 | 0.00 | 0.00 | 97 | 1017.9 |
| 20260902054325 | 70 | 212 | 0.0 | 0.0 | 0.00 | 0.00 | 0.00 | 97 | 1017.8 |
| 20260902053818 | 70 | 212 | 0.0 | 0.0 | 0.00 | 0.00 | 0.00 | 97 | 1017.9 |
| 20260902053315 | 70 | 212 | 0.0 | 0.0 | 0.00 | 0.00 | 0.00 | 97 | 1017.9 |
| 20260902052826 | 70 | 212 | 0.0 | 0.0 | 0.00 | 0.00 | 0.00 | 97 | 1017.9 |
| 20260902052319 | 70 | 212 | 0.0 | 0.0 | 0.00 | 0.00 | 0.00 | 97 | 1017.9 |
| 20260902051812 | 70 | 212 | 0.0 | 0.0 | 0.00 | 0.00 | 0.00 | 97 | 1017.9 |
| 20260902051325 | 70 | 212 | 0.0 | 0.0 | 0.00 | 0.00 | 0.00 | 97 | 1017.9 |
| 20260902050818 | 71 | 212 | 0.0 | 0.0 | 0.00 | 0.00 | 0.00 | 97 | 1017.9 |
| 20260902050331 | 71 | 212 | 0.0 | 0.0 | 0.00 | 0.00 | 0.00 | 97 | 1017.9 |
| 20260902045823 | 71 | 212 | 0.0 | 0.0 | 0.00 | 0.00 | 0.00 | 97 | 1017.9 |
| 20260902045319 | 71 | 212 | 0.0 | 0.0 | 0.00 | 0.00 | 0.00 | 96 | 1017.8 |
| 20260902044812 | 71 | 212 | 0.0 | 0.0 | 0.00 | 0.00 | 0.00 | 96 | 1017.9 |
| 20260902044325 | 71 | 212 | 0.0 | 0.0 | 0.00 | 0.00 | 0.00 | 96 | 1017.9 |
| 20260902043818 | 71 | 212 | 0.0 | 0.0 | 0.00 | 0.00 | 0.00 | 96 | 1017.9 |
| 20260902043311 | 71 | 212 | 0.0 | 0.0 | 0.00 | 0.00 | 0.00 | 96 | 1017.9 |
| 20260902042824 | 71 | 212 | 0.0 | 0.0 | 0.00 | 0.00 | 0.00 | 96 | 1017.9 |
| 20260902042317 | 71 | 212 | 0.0 | 0.0 | 0.00 | 0.00 | 0.00 | 96 | 1017.9 |
| 20260902041810 | 72 | 212 | 0.0 | 0.0 | 0.00 | 0.00 | 0.00 | 96 | 1017.9 |
| 20260902041343 | 72 | 212 | 0.0 | 0.0 | 0.00 | 0.00 | 0.00 | 96 | 1017.9 |
| 20260902040839 | 72 | 212 | 0.0 | 0.0 | 0.00 | 0.00 | 0.00 | 96 | 1017.8 |
| 20260902040310 | 72 | 212 | 0.0 | 0.0 | 0.00 | 0.00 | 0.00 | 96 | 1017.9 |
| 20260902035823 | 72 | 212 | 0.0 | 0.0 | 0.00 | 0.00 | 0.00 | 96 | 1017.9 |
| 20260902035316 | 72 | 212 | 0.0 | 0.0 | 0.00 | 0.00 | 0.00 | 96 | 1017.9 |
| 20260902034827 | 72 | 212 | 0.0 | 0.0 | 0.00 | 0.00 | 0.00 | 96 | 1017.9 |
| 20260902034321 | 72 | 212 | 0.0 | 0.0 | 0.00 | 0.00 | 0.00 | 96 | 1017.9 |
| 20260902033813 | 72 | 212 | 0.0 | 0.0 | 0.00 | 0.00 | 0.00 | 96 | 1017.9 |
| 20260902033326 | 72 | 212 | 0.0 | 0.0 | 0.00 | 0.00 | 0.00 | 95 | 1017.9 |
| 20260902032823 | 72 | 212 | 0.0 | 0.0 | 0.00 | 0.00 | 0.00 | 95 | 1017.9 |
| 20260902032316 | 72 | 212 | 0.0 | 0.0 | 0.00 | 0.00 | 0.00 | 95 | 1017.9 |
| 20260902031829 | 73 | 212 | 0.0 | 0.0 | 0.00 | 0.00 | 0.00 | 95 | 1017.9 |
| 20260902031322 | 73 | 212 | 0.0 | 0.0 | 0.00 | 0.00 | 0.00 | 95 | 1018.0 |
| 20260902030815 | 73 | 212 | 0.0 | 0.0 | 0.00 | 0.00 | 0.00 | 95 | 1017.9 |